Burlington, IA

4:45 PM CDT on July 28, 2016 (GMT -0500)
Burlington Regional

Weather History for KBRL - April, 2014

Change the Weather History Date:

Tuesday, April 15, 2014

  Actual Average Record
Temperature  
Mean Temperature 36 °F 54 °F  
Max Temperature 45 °F 65 °F 87 °F (2002)
Min Temperature 26 °F 43 °F 23 °F (1943)
Degree Days  
Heating Degree Days 29 12  
Month to date heating degree days 249 215  
Since 1 July heating degree days 6537 5321  
Cooling Degree Days 0 1  
Month to date cooling degree days 5 5  
Year to date cooling degree days 5 7  
Moisture  
Dew Point 19 °F    
Average Humidity 51    
Maximum Humidity 69    
Minimum Humidity 33    
Precipitation  
Precipitation 0.00 in 0.12 in 1.78 in (1992)
Month to date precipitation 2.30 1.65  
Year to date precipitation 7.84 7.30  
Sea Level Pressure  
Sea Level Pressure 30.16 in    
Wind  
Wind Speed 8 mph (NW)    
Max Wind Speed 17 mph    
Max Gust Speed 24 mph    
Visibility 10 miles    
Events      
T = Trace of Precipitation, MM = Missing Value Source: NWS Daily Summary

Daily Weather History Graph

Daily Weather History Graph

Search for Another Location

Airport or City:

Trip Planner

Search our weather history database for the weather conditions in past years. The results will help you decide how hot, cold, wet, or windy it might be!

Date:

Astronomy

Apr. 15, 2014 Rise Set
Actual Time 6:25 AM CDT 7:44 PM CDT
Civil Twilight 5:57 AM CDT 8:12 PM CDT
Nautical Twilight 5:23 AM CDT 8:46 PM CDT
Astronomical Twilight 4:47 AM CDT 9:22 PM CDT
Moon 8:25 PM CDT (4/15) 6:33 AM CDT (4/15)
Length of Visible Light 14h 15m
Length of Day
13h 18m
Full, 100% of the Moon is Illuminated
Apr 15
Full
Apr 22
Last Quarter
Apr 29
New
May 6
First Quarter
May 14
Full

Hourly Weather History & Observations

Time (CDT) Temp. Windchill Dew Point Humidity Pressure Visibility Wind Dir Wind Speed Gust Speed Precip Events Conditions
12:53 AM 30.9 °F 22.8 °F 21.0 °F 67% 30.12 in 10.0 mi NW 9.2 mph - N/A   Clear
1:53 AM 30.0 °F 22.4 °F 19.9 °F 66% 30.12 in 10.0 mi NW 8.1 mph - N/A   Clear
2:53 AM 28.9 °F 19.8 °F 19.0 °F 67% 30.12 in 10.0 mi NNW 10.4 mph - N/A   Clear
3:53 AM 28.9 °F 20.4 °F 18.0 °F 64% 30.13 in 10.0 mi NW 9.2 mph - N/A   Clear
4:53 AM 28.0 °F 20.8 °F 18.0 °F 66% 30.14 in 10.0 mi NW 6.9 mph - N/A   Clear
5:53 AM 27.0 °F 18.7 °F 18.0 °F 69% 30.15 in 10.0 mi NW 8.1 mph - N/A   Clear
6:53 AM 27.0 °F 19.5 °F 18.0 °F 69% 30.17 in 10.0 mi NW 6.9 mph - N/A   Clear
7:53 AM 30.0 °F 21.7 °F 19.0 °F 64% 30.20 in 10.0 mi NW 9.2 mph - N/A   Clear
8:53 AM 32.0 °F 23.6 °F 17.1 °F 54% 30.21 in 10.0 mi NNW 10.4 mph - N/A   Clear
9:53 AM 34.0 °F 25.0 °F 17.1 °F 50% 30.21 in 10.0 mi WNW 12.7 mph - N/A   Clear
10:53 AM 36.0 °F 28.0 °F 18.0 °F 48% 30.22 in 10.0 mi NW 11.5 mph 19.6 mph N/A   Clear
11:53 AM 37.0 °F 31.0 °F 19.0 °F 48% 30.22 in 10.0 mi WNW 8.1 mph 20.7 mph N/A   Partly Cloudy
12:53 PM 39.9 °F 32.5 °F 19.0 °F 43% 30.21 in 10.0 mi West 12.7 mph 19.6 mph N/A   Scattered Clouds
1:53 PM 41.0 °F 34.3 °F 19.9 °F 43% 30.20 in 10.0 mi NNW 11.5 mph - N/A   Mostly Cloudy
2:53 PM 43.0 °F 37.2 °F 19.9 °F 40% 30.19 in 10.0 mi WNW 10.4 mph - N/A   Clear
3:53 PM 44.1 °F 40.8 °F 19.9 °F 38% 30.17 in 10.0 mi Variable 5.8 mph 19.6 mph N/A   Clear
4:53 PM 43.0 °F 39.5 °F 16.0 °F 34% 30.15 in 10.0 mi Variable 5.8 mph - N/A   Clear
5:53 PM 44.1 °F 39.5 °F 19.9 °F 38% 30.15 in 10.0 mi West 8.1 mph - N/A   Clear
6:53 PM 43.0 °F 39.5 °F 19.9 °F 40% 30.14 in 10.0 mi WSW 5.8 mph - N/A   Clear
7:53 PM 41.0 °F - 17.6 °F 39% 30.12 in 10.0 mi Calm Calm - N/A   Clear
8:53 PM 37.9 °F 34.4 °F 21.9 °F 53% 30.15 in 10.0 mi ESE 4.6 mph - N/A   Clear
9:53 PM 36.0 °F 31.1 °F 23.0 °F 59% 30.16 in 10.0 mi ESE 5.8 mph - N/A   Clear
10:53 PM 36.0 °F 31.1 °F 21.9 °F 57% 30.16 in 10.0 mi SE 5.8 mph - N/A   Clear
11:53 PM 37.0 °F 30.4 °F 23.0 °F 57% 30.15 in 10.0 mi SE 9.2 mph - N/A   Clear